Location: *
(46.1866°S, 178.5290°W)
Time: 09:32:09
(UTC+00:00)

Cosmos 1461 - Pass Details

Date: 01 October 2021
Orbit: 520 x 642 km, 65.0° (Epoch: 20 October)

Event Time Altitude Azimuth Distance (km) Brightness Sun altitude
Rises 14:20:00 0° 209° (SSW) 2,911 6.7 -29.6°
Reaches altitude 10° 14:23:16 10° 184° (S) 2,025 6.1 -29.1°
Maximum altitude 14:25:50 15° 150° (SSE) 1,752 6.1 -28.8°
Drops below altitude 10° 14:28:24 10° 117° (ESE) 2,047 6.6 -28.5°
Sets 14:31:44 0° 92° (E) 2,963 7.3 -28.1°
